| time (UTC) | temp F | wind direction | speed MPH | gust MPH | rain 1hr in | rain 24hr in | rain mn in | humidity % | barometer mb |
| 20260505055431 | 51 | 248 | 0.0 | 4.0 | 0.00 | 0.00 | 0.00 | 42 | 1010.0 |
| 20260505054901 | 51 | 184 | 1.0 | 6.0 | 0.00 | 0.00 | 0.00 | 42 | 1010.0 |
| 20260505054356 | 51 | 227 | 1.0 | 6.0 | 0.00 | 0.00 | 0.00 | 42 | 1010.1 |
| 20260505053849 | 51 | 211 | 0.0 | 6.0 | 0.00 | 0.00 | 0.00 | 42 | 1010.1 |
| 20260505053342 | 51 | 175 | 0.0 | 2.0 | 0.00 | 0.00 | 0.00 | 42 | 1010.1 |
| 20260505052835 | 51 | 171 | 0.0 | 4.0 | 0.00 | 0.00 | 0.00 | 42 | 1010.1 |
| 20260505052326 | 51 | 194 | 0.0 | 4.0 | 0.00 | 0.00 | 0.00 | 42 | 1010.1 |
| 20260505052042 | 51 | 196 | 0.0 | 4.0 | 0.00 | 0.00 | 0.00 | 42 | 1010.2 |
| 20260505051314 | 52 | 182 | 0.0 | 4.0 | 0.00 | 0.00 | 0.00 | 42 | 1010.1 |
| 20260505051017 | 52 | 205 | 1.0 | 5.0 | 0.00 | 0.00 | 0.00 | 41 | 1010.2 |
| 20260505050858 | 52 | 190 | 1.0 | 4.0 | 0.00 | 0.00 | 0.00 | 41 | 1010.1 |
| 20260505041714 | 53 | 163 | 0.0 | 4.0 | 0.00 | 0.00 | 0.00 | 41 | 1010.3 |
| 20260505041202 | 53 | 140 | 1.0 | 4.0 | 0.00 | 0.00 | 0.00 | 41 | 1010.3 |
| 20260505040655 | 53 | 229 | 1.0 | 5.0 | 0.00 | 0.00 | 0.00 | 41 | 1010.4 |
| 20260505040637 | 54 | 254 | 1.0 | 6.0 | 0.00 | 0.00 | 0.00 | 41 | 1010.4 |
| 20260505035650 | 54 | 117 | 1.0 | 6.0 | 0.00 | 0.00 | 0.00 | 40 | 1010.3 |
| 20260505035139 | 54 | 119 | 0.0 | 5.0 | 0.00 | 0.00 | 0.00 | 40 | 1010.3 |
| 20260505034638 | 54 | 177 | 0.0 | 4.0 | 0.00 | 0.00 | 0.00 | 40 | 1010.3 |
| 20260505034136 | 54 | 188 | 0.0 | 4.0 | 0.00 | 0.00 | 0.00 | 40 | 1010.3 |
| 20260505033630 | 54 | 217 | 1.0 | 7.0 | 0.00 | 0.00 | 0.00 | 40 | 1010.2 |
| 20260505033123 | 54 | 202 | 1.0 | 7.0 | 0.00 | 0.00 | 0.00 | 40 | 1010.1 |
| 20260505032618 | 54 | 204 | 1.0 | 5.0 | 0.00 | 0.00 | 0.00 | 40 | 1010.1 |
| 20260505032102 | 54 | 210 | 1.0 | 5.0 | 0.00 | 0.00 | 0.00 | 40 | 1010.1 |
| 20260505031556 | 54 | 204 | 2.0 | 8.0 | 0.00 | 0.00 | 0.00 | 40 | 1010.2 |
| 20260505031312 | 54 | 223 | 1.0 | 8.0 | 0.00 | 0.00 | 0.00 | 40 | 1010.2 |
| 20260505030542 | 54 | 212 | 0.0 | 4.0 | 0.00 | 0.00 | 0.00 | 40 | 1010.2 |
| 20260505030042 | 55 | 237 | 1.0 | 4.0 | 0.00 | 0.00 | 0.00 | 40 | 1010.2 |
| 20260505025542 | 55 | 217 | 0.0 | 4.0 | 0.00 | 0.00 | 0.00 | 40 | 1010.1 |
| 20260505025036 | 55 | 155 | 1.0 | 5.0 | 0.00 | 0.00 | 0.00 | 40 | 1010.2 |
| 20260505024517 | 55 | 229 | 1.0 | 5.0 | 0.00 | 0.00 | 0.00 | 39 | 1010.2 |
| 20260505024011 | 55 | 219 | 1.0 | 5.0 | 0.00 | 0.00 | 0.00 | 39 | 1010.2 |
| 20260505023506 | 55 | 126 | 1.0 | 6.0 | 0.00 | 0.00 | 0.00 | 39 | 1010.3 |
| 20260505023000 | 55 | 211 | 1.0 | 5.0 | 0.00 | 0.00 | 0.00 | 39 | 1010.3 |
| 20260505022456 | 55 | 202 | 1.0 | 3.0 | 0.00 | 0.00 | 0.00 | 39 | 1010.4 |
| 20260505021948 | 55 | 196 | 1.0 | 6.0 | 0.00 | 0.00 | 0.00 | 39 | 1010.3 |
| 20260505021442 | 56 | 165 | 2.0 | 6.0 | 0.00 | 0.00 | 0.00 | 39 | 1010.4 |
| 20260505021158 | 56 | 233 | 1.0 | 6.0 | 0.00 | 0.00 | 0.00 | 39 | 1010.4 |
| 20260505020431 | 56 | 251 | 2.0 | 7.0 | 0.00 | 0.00 | 0.00 | 39 | 1010.4 |
| 20260505015927 | 56 | 224 | 2.0 | 7.0 | 0.00 | 0.00 | 0.00 | 39 | 1010.4 |
| 20260505015426 | 56 | 202 | 1.0 | 6.0 | 0.00 | 0.00 | 0.00 | 39 | 1010.4 |
| 20260505014927 | 56 | 206 | 1.0 | 6.0 | 0.00 | 0.00 | 0.00 | 39 | 1010.3 |
| 20260505014426 | 57 | 234 | 2.0 | 6.0 | 0.00 | 0.00 | 0.00 | 39 | 1010.3 |
| 20260505013921 | 57 | 217 | 2.0 | 11.0 | 0.00 | 0.00 | 0.00 | 39 | 1010.4 |
| 20260505013412 | 57 | 304 | 3.0 | 11.0 | 0.00 | 0.00 | 0.00 | 39 | 1010.3 |
| 20260505012910 | 57 | 184 | 3.0 | 12.0 | 0.00 | 0.00 | 0.00 | 38 | 1010.3 |
| 20260505012409 | 57 | 237 | 2.0 | 12.0 | 0.00 | 0.00 | 0.00 | 38 | 1010.1 |
| 20260505011909 | 57 | 219 | 2.0 | 6.0 | 0.00 | 0.00 | 0.00 | 38 | 1010.1 |
| 20260505011410 | 57 | 192 | 1.0 | 10.0 | 0.00 | 0.00 | 0.00 | 38 | 1010.0 |
| 20260505011348 | 58 | 271 | 1.0 | 10.0 | 0.00 | 0.00 | 0.00 | 38 | 1010.0 |
| 20260505010404 | 58 | 212 | 3.0 | 7.0 | 0.00 | 0.00 | 0.00 | 38 | 1009.8 |
| 20260505005905 | 58 | 209 | 2.0 | 7.0 | 0.00 | 0.00 | 0.00 | 38 | 1009.8 |
| 20260505005404 | 58 | 188 | 2.0 | 7.0 | 0.00 | 0.00 | 0.00 | 38 | 1009.7 |
| 20260505004903 | 59 | 234 | 3.0 | 11.0 | 0.00 | 0.00 | 0.00 | 38 | 1009.5 |
| 20260505004404 | 59 | 196 | 3.0 | 11.0 | 0.00 | 0.00 | 0.00 | 38 | 1009.5 |
| 20260505003901 | 59 | 204 | 2.0 | 7.0 | 0.00 | 0.00 | 0.00 | 38 | 1009.3 |
| 20260505003400 | 59 | 244 | 2.0 | 7.0 | 0.00 | 0.00 | 0.00 | 38 | 1009.3 |
| 20260505002902 | 59 | 198 | 2.0 | 12.0 | 0.00 | 0.00 | 0.00 | 38 | 1009.1 |
| 20260505002358 | 59 | 208 | 3.0 | 13.0 | 0.00 | 0.00 | 0.00 | 38 | 1009.1 |
| 20260505001858 | 60 | 164 | 4.0 | 14.0 | 0.00 | 0.00 | 0.00 | 38 | 1008.9 |
| 20260505001358 | 60 | 186 | 4.0 | 14.0 | 0.00 | 0.00 | 0.00 | 38 | 1008.8 |
| 20260505001122 | 60 | 259 | 4.0 | 17.0 | 0.00 | 0.00 | 0.00 | 38 | 1008.7 |
| 20260505000355 | 60 | 263 | 5.0 | 17.0 | 0.00 | 0.00 | 0.00 | 39 | 1008.5 |
| 20260504235855 | 60 | 206 | 3.0 | 12.0 | 0.00 | 0.00 | 0.00 | 38 | 1008.6 |
| 20260504235356 | 61 | 213 | 2.0 | 9.0 | 0.00 | 0.00 | 0.00 | 38 | 1008.6 |
| 20260504234856 | 61 | 203 | 3.0 | 9.0 | 0.00 | 0.00 | 0.00 | 38 | 1008.5 |
| 20260504234353 | 62 | 222 | 3.0 | 14.0 | 0.00 | 0.00 | 0.00 | 38 | 1008.4 |
| 20260504233851 | 62 | 286 | 4.0 | 14.0 | 0.00 | 0.00 | 0.00 | 38 | 1008.3 |
| 20260504233351 | 62 | 317 | 5.0 | 15.0 | 0.00 | 0.00 | 0.00 | 38 | 1008.2 |
| 20260504232849 | 63 | 151 | 5.0 | 15.0 | 0.00 | 0.00 | 0.00 | 37 | 1008.1 |
| 20260504232609 | 63 | 211 | 4.0 | 14.0 | 0.00 | 0.00 | 0.00 | 37 | 1008.0 |
| 20260504231849 | 63 | 240 | 4.0 | 14.0 | 0.00 | 0.00 | 0.00 | 38 | 1007.9 |
| 20260504231611 | 64 | 216 | 4.0 | 16.0 | 0.00 | 0.00 | 0.00 | 37 | 1007.9 |
| 20260504230849 | 64 | 219 | 4.0 | 16.0 | 0.00 | 0.00 | 0.00 | 37 | 1008.0 |
| 20260504230346 | 65 | 198 | 4.0 | 14.0 | 0.00 | 0.00 | 0.00 | 37 | 1007.8 |
| 20260504225846 | 65 | 223 | 4.0 | 14.0 | 0.00 | 0.00 | 0.00 | 37 | 1007.8 |
| 20260504225347 | 65 | 175 | 4.0 | 21.0 | 0.00 | 0.00 | 0.00 | 37 | 1007.7 |
| 20260504224848 | 65 | 214 | 5.0 | 21.0 | 0.00 | 0.00 | 0.00 | 37 | 1007.7 |
| 20260504224346 | 65 | 215 | 5.0 | 15.0 | 0.00 | 0.00 | 0.00 | 37 | 1007.7 |
| 20260504223846 | 66 | 229 | 4.0 | 14.0 | 0.00 | 0.00 | 0.00 | 37 | 1007.7 |
| 20260504223346 | 66 | 158 | 5.0 | 16.0 | 0.00 | 0.00 | 0.00 | 37 | 1007.4 |
| 20260504223119 | 67 | 212 | 5.0 | 16.0 | 0.00 | 0.00 | 0.00 | 37 | 1007.3 |
| 20260504222338 | 67 | 233 | 5.0 | 14.0 | 0.00 | 0.00 | 0.00 | 37 | 1007.3 |
| 20260504221832 | 68 | 151 | 4.0 | 12.0 | 0.00 | 0.00 | 0.00 | 37 | 1007.3 |
| 20260504221327 | 68 | 268 | 4.0 | 12.0 | 0.00 | 0.00 | 0.00 | 36 | 1007.4 |
| 20260504220820 | 69 | 30 | 4.0 | 12.0 | 0.00 | 0.00 | 0.00 | 36 | 1007.2 |
| 20260504220315 | 69 | 190 | 3.0 | 10.0 | 0.00 | 0.00 | 0.00 | 36 | 1007.2 |
| 20260504215809 | 69 | 261 | 4.0 | 14.0 | 0.00 | 0.00 | 0.00 | 36 | 1007.3 |
| 20260504215750 | 69 | 301 | 5.0 | 15.0 | 0.00 | 0.00 | 0.00 | 36 | 1007.3 |
| 20260504214757 | 69 | 209 | 4.0 | 13.0 | 0.00 | 0.00 | 0.00 | 36 | 1007.3 |
| 20260504214251 | 69 | 257 | 3.0 | 10.0 | 0.00 | 0.00 | 0.00 | 35 | 1007.3 |
| 20260504213745 | 69 | 0 | 4.0 | 12.0 | 0.00 | 0.00 | 0.00 | 35 | 1007.3 |
| 20260504213239 | 69 | 170 | 5.0 | 15.0 | 0.00 | 0.00 | 0.00 | 35 | 1007.3 |
| 20260504212733 | 70 | 200 | 6.0 | 18.0 | 0.00 | 0.00 | 0.00 | 35 | 1007.1 |
| 20260504212227 | 70 | 202 | 6.0 | 16.0 | 0.00 | 0.00 | 0.00 | 35 | 1007.3 |
| 20260504211721 | 71 | 244 | 5.0 | 15.0 | 0.00 | 0.00 | 0.00 | 35 | 1006.9 |
| 20260504211215 | 71 | 240 | 5.0 | 16.0 | 0.00 | 0.00 | 0.00 | 34 | 1006.9 |
| 20260504210709 | 71 | 209 | 5.0 | 16.0 | 0.00 | 0.00 | 0.00 | 34 | 1006.9 |
| 20260504210203 | 71 | 205 | 4.0 | 12.0 | 0.00 | 0.00 | 0.00 | 34 | 1006.9 |
| 20260504205657 | 71 | 230 | 4.0 | 16.0 | 0.00 | 0.00 | 0.00 | 34 | 1006.9 |
| 20260504205151 | 71 | 344 | 5.0 | 16.0 | 0.00 | 0.00 | 0.00 | 34 | 1006.9 |
| 20260504204645 | 71 | 225 | 5.0 | 14.0 | 0.00 | 0.00 | 0.00 | 33 | 1006.9 |
| 20260504204138 | 72 | 252 | 4.0 | 19.0 | 0.00 | 0.00 | 0.00 | 33 | 1007.0 |
| 20260504203633 | 72 | 208 | 4.0 | 19.0 | 0.00 | 0.00 | 0.00 | 35 | 1006.9 |
| 20260504203127 | 72 | 90 | 3.0 | 11.0 | 0.00 | 0.00 | 0.00 | 34 | 1006.9 |
| 20260504202628 | 71 | 187 | 3.0 | 11.0 | 0.00 | 0.00 | 0.00 | 35 | 1007.0 |
| 20260504202347 | 71 | 253 | 5.0 | 13.0 | 0.00 | 0.00 | 0.00 | 35 | 1006.9 |
| 20260504201627 | 71 | 159 | 5.0 | 14.0 | 0.00 | 0.00 | 0.00 | 35 | 1007.0 |
| 20260504201125 | 71 | 190 | 4.0 | 14.0 | 0.00 | 0.00 | 0.00 | 34 | 1007.1 |
| 20260504200624 | 71 | 207 | 3.0 | 12.0 | 0.00 | 0.00 | 0.00 | 34 | 1007.1 |
| 20260504200123 | 71 | 279 | 4.0 | 12.0 | 0.00 | 0.00 | 0.00 | 34 | 1007.1 |
| 20260504195854 | 71 | 233 | 4.0 | 17.0 | 0.00 | 0.00 | 0.00 | 34 | 1007.1 |
| 20260504195120 | 71 | 190 | 4.0 | 17.0 | 0.00 | 0.00 | 0.00 | 34 | 1007.0 |
| 20260504194845 | 71 | 268 | 4.0 | 12.0 | 0.00 | 0.00 | 0.00 | 35 | 1007.1 |
| 20260504194121 | 71 | 241 | 5.0 | 17.0 | 0.00 | 0.00 | 0.00 | 34 | 1007.0 |
| 20260504193620 | 71 | 210 | 5.0 | 17.0 | 0.00 | 0.00 | 0.00 | 34 | 1007.1 |
| 20260504193120 | 71 | 207 | 3.0 | 12.0 | 0.00 | 0.00 | 0.00 | 34 | 1007.1 |
| 20260504192620 | 70 | 64 | 4.0 | 12.0 | 0.00 | 0.00 | 0.00 | 33 | 1007.0 |
| 20260504192120 | 71 | 188 | 4.0 | 12.0 | 0.00 | 0.00 | 0.00 | 34 | 1007.1 |
| 20260504191620 | 70 | 184 | 4.0 | 11.0 | 0.00 | 0.00 | 0.00 | 34 | 1007.0 |
| 20260504191346 | 70 | 195 | 4.0 | 12.0 | 0.00 | 0.00 | 0.00 | 33 | 1007.0 |
| 20260504190616 | 70 | 281 | 5.0 | 16.0 | 0.00 | 0.00 | 0.00 | 34 | 1007.1 |
| 20260504190116 | 70 | 237 | 4.0 | 16.0 | 0.00 | 0.00 | 0.00 | 35 | 1007.3 |
| 20260504185615 | 70 | 246 | 4.0 | 12.0 | 0.00 | 0.00 | 0.00 | 34 | 1007.3 |
| 20260504185117 | 71 | 333 | 4.0 | 12.0 | 0.00 | 0.00 | 0.00 | 34 | 1007.3 |
| 20260504184613 | 71 | 197 | 4.0 | 14.0 | 0.00 | 0.00 | 0.00 | 34 | 1007.5 |
| 20260504184333 | 70 | 338 | 5.0 | 17.0 | 0.00 | 0.00 | 0.00 | 35 | 1007.3 |
| 20260504183613 | 70 | 256 | 5.0 | 17.0 | 0.00 | 0.00 | 0.00 | 36 | 1007.6 |
| 20260504183110 | 70 | 225 | 4.0 | 15.0 | 0.00 | 0.00 | 0.00 | 35 | 1007.5 |
| 20260504182836 | 70 | 188 | 4.0 | 15.0 | 0.00 | 0.00 | 0.00 | 36 | 1007.4 |
| 20260504182109 | 70 | 136 | 5.0 | 23.0 | 0.00 | 0.00 | 0.00 | 36 | 1007.5 |
| 20260504181600 | 69 | 166 | 6.0 | 23.0 | 0.00 | 0.00 | 0.00 | 35 | 1007.7 |
| 20260504181101 | 69 | 149 | 5.0 | 16.0 | 0.00 | 0.00 | 0.00 | 35 | 1007.8 |
| 20260504180601 | 69 | 300 | 5.0 | 18.0 | 0.00 | 0.00 | 0.00 | 36 | 1007.9 |
| 20260504180059 | 69 | 213 | 6.0 | 18.0 | 0.00 | 0.00 | 0.00 | 35 | 1008.0 |
| 20260504175557 | 69 | 229 | 5.0 | 16.0 | 0.00 | 0.00 | 0.00 | 35 | 1008.0 |
| 20260504175057 | 69 | 213 | 5.0 | 18.0 | 0.00 | 0.00 | 0.00 | 35 | 1008.1 |
| 20260504174557 | 69 | 214 | 5.0 | 19.0 | 0.00 | 0.00 | 0.00 | 36 | 1008.0 |
| 20260504174056 | 69 | 198 | 5.0 | 19.0 | 0.00 | 0.00 | 0.00 | 35 | 1008.0 |
| 20260504173558 | 69 | 130 | 6.0 | 15.0 | 0.00 | 0.00 | 0.00 | 35 | 1008.1 |
| 20260504173318 | 69 | 196 | 5.0 | 15.0 | 0.00 | 0.00 | 0.00 | 36 | 1008.0 |
| 20260504172555 | 69 | 219 | 4.0 | 14.0 | 0.00 | 0.00 | 0.00 | 36 | 1008.1 |
| 20260504172053 | 69 | 258 | 5.0 | 15.0 | 0.00 | 0.00 | 0.00 | 37 | 1008.1 |
| 20260504171814 | 69 | 163 | 6.0 | 15.0 | 0.00 | 0.00 | 0.00 | 37 | 1008.1 |
| 20260504171053 | 69 | 293 | 5.0 | 15.0 | 0.00 | 0.00 | 0.00 | 37 | 1008.2 |
| 20260504170552 | 69 | 198 | 5.0 | 16.0 | 0.00 | 0.00 | 0.00 | 36 | 1008.0 |
| 20260504160444 | 68 | 238 | 6.0 | 15.0 | 0.00 | 0.00 | 0.00 | 38 | 1009.1 |
| 20260504150838 | 67 | 344 | 4.0 | 14.0 | 0.00 | 0.00 | 0.00 | 40 | 1009.8 |
| 20260504150333 | 67 | 244 | 5.0 | 15.0 | 0.00 | 0.00 | 0.00 | 40 | 1009.8 |
| 20260504141253 | 63 | 281 | 4.0 | 14.0 | 0.00 | 0.00 | 0.00 | 42 | 1010.3 |
| 20260504140754 | 63 | 181 | 4.0 | 12.0 | 0.00 | 0.00 | 0.00 | 41 | 1010.3 |
| 20260504140253 | 62 | 235 | 3.0 | 10.0 | 0.00 | 0.00 | 0.00 | 43 | 1010.3 |
| 20260504130721 | 57 | 184 | 2.0 | 9.0 | 0.00 | 0.00 | 0.00 | 44 | 1010.9 |
| 20260504130220 | 57 | 207 | 2.0 | 8.0 | 0.00 | 0.00 | 0.00 | 44 | 1010.9 |
| 20260504120141 | 50 | 244 | 1.0 | 5.0 | 0.00 | 0.00 | 0.00 | 44 | 1011.3 |
| 20260504120125 | 49 | 275 | 1.0 | 5.0 | 0.00 | 0.00 | 0.00 | 44 | 1011.2 |
| 20260504100508 | 41 | 158 | 1.0 | 5.0 | 0.00 | 0.00 | 0.00 | 44 | 1010.8 |
| 20260504081956 | 43 | 225 | 0.0 | 2.0 | 0.00 | 0.00 | 0.00 | 43 | 1010.5 |
| 20260504081218 | 43 | 161 | 0.0 | 1.0 | 0.00 | 0.00 | 0.00 | 43 | 1010.5 |
| 20260504080719 | 43 | 161 | 0.0 | 1.0 | 0.00 | 0.00 | 0.00 | 43 | 1010.5 |
| 20260504080219 | 43 | 196 | 0.0 | 3.0 | 0.00 | 0.00 | 0.00 | 43 | 1010.4 |
| 20260504070121 | 43 | 194 | 1.0 | 3.0 | 0.00 | 0.00 | 0.00 | 43 | 1010.2 |